This is the latest recevied weather packets stored in our database for station/object KD4MBW. If no packets are shown the sender has not sent any weather packets the latest 10 day(s).
| Time | Temp. | Humidity | Pressure | Rain* | Wind** | Luminosity | Snow |
|---|---|---|---|---|---|---|---|
| 1777317180 | 28.89° C | 66% | 1017.2 hPa | 0 mm | - | 745 W/m² | - |
| 1777316875 | 28.33° C | 67% | 1017.2 hPa | 0 mm | - | 754 W/m² | - |
| 1777316572 | 28.33° C | 68% | 1017.1 hPa | 0 mm | - | 758 W/m² | - |
| 1777316269 | 28.33° C | 69% | 1017.3 hPa | 0 mm | - | 775 W/m² | - |
| 1777315966 | 27.78° C | 69% | 1017.3 hPa | 0 mm | - | 757 W/m² | - |
| 1777315664 | 27.22° C | 71% | 1017.4 hPa | 0 mm | - | 807 W/m² | - |
| 1777315363 | 27.78° C | 71% | 1017.1 hPa | 0 mm | - | 791 W/m² | - |
| 1777315060 | 27.22° C | 72% | 1017.2 hPa | 0 mm | - | 609 W/m² | - |
| 1777314760 | 27.22° C | 72% | 1017.4 hPa | 0 mm | - | 640 W/m² | - |
| 1777314457 | 27.78° C | 72% | 1017.4 hPa | 0 mm | - | 326 W/m² | - |
| 1777314154 | 27.78° C | 72% | 1017.4 hPa | 0 mm | - | 802 W/m² | - |
| 1777313852 | 27.22° C | 73% | 1017.5 hPa | 0 mm | - | 787 W/m² | - |
| 1777313549 | 26.67° C | 73% | 1017.6 hPa | 0 mm | - | 788 W/m² | - |
| 1777313246 | 26.67° C | 74% | 1017.6 hPa | 0 mm | - | 795 W/m² | - |
| 1777312943 | 26.67° C | 75% | 1017.7 hPa | 0 mm | - | 799 W/m² | - |
| 1777312639 | 26.67° C | 74% | 1018.1 hPa | 0 mm | - | 805 W/m² | - |
| 1777312337 | 26.67° C | 74% | 1017.8 hPa | 0 mm | - | 795 W/m² | - |
| 1777312034 | 26.67° C | 75% | 1018 hPa | 0 mm | - | 788 W/m² | - |
| 1777311730 | 26.11° C | 76% | 1018.1 hPa | 0 mm | - | 787 W/m² | - |
| 1777311428 | 26.11° C | 78% | 1018 hPa | 0 mm | - | 800 W/m² | - |
| 1777311125 | 26.11° C | 77% | 1018 hPa | 0 mm | - | 801 W/m² | - |
| 1777310823 | 25.56° C | 78% | 1018 hPa | 0 mm | - | 798 W/m² | - |
| 1777310520 | 25° C | 80% | 1018.2 hPa | 0 mm | - | 651 W/m² | - |
| 1777310217 | 25° C | 80% | 1018.4 hPa | 0 mm | - | 806 W/m² | - |
| 1777309914 | 25.56° C | 81% | 1018.5 hPa | 0 mm | - | 464 W/m² | - |
* Rain latest hour (hover to see other rain measurements)
** Current wind speed in m/s (hover to see current wind gust speed)